Wind_Speed
13 9 6 2 2 5 8 12 16 19 21 24 26 27 29 30 31 33 34 35 36 36 35 35 36 35 35 35 35 34 34 35 36 36 36 35 34 34 34 34 33 32 32
15 13 10 8 4 1 2 6 9 13 16 18 21 23 25 27 29 31 32 34 35 35 35 35 36 36 36 35 35 35 34 33 33 34 34 34 33 33 34 34 34 33 32
18 15 12 10 8 6 3 0 3 6 10 13 16 19 22 24 27 29 30 31 32 33 33 34 35 35 35 35 35 35 34 33 32 32 31 30 30 31 31 32 31 30 29
19 18 16 13 12 10 7 5 2 1 4 7 11 14 17 19 22 24 26 28 29 30 31 31 32 33 32 33 33 33 32 31 29 29 28 28 28 27 27 27 26 24 23
20 19 18 16 14 12 10 7 5 4 3 4 6 9 12 15 17 19 21 23 25 26 27 27 28 28 29 28 28 28 28 28 27 27 26 26 25 24 23 22 21 21 19
21 20 19 18 17 16 14 12 10 8 6 5 6 8 10 12 15 17 19 20 22 23 24 24 25 25 25 25 26 26 25 25 25 24 23 23 23 21 20 19 19 18 18
22 21 20 19 18 18 16 15 13 11 10 9 8 8 9 11 13 15 17 18 20 21 21 22 22 21 21 21 21 21 22 22 20 20 20 20 19 19 18 18 17 17 17
21 21 20 19 19 18 17 16 15 14 13 12 11 11 11 12 12 13 15 17 18 19 19 19 19 19 19 18 18 16 17 17 17 18 18 18 17 17 16 16 16 15 15
21 21 21 20 19 18 18 17 17 16 16 15 14 14 13 13 13 13 14 15 16 17 18 18 18 18 18 16 14 14 14 14 14 13 14 13 13 14 14 14 14 14 14
21 21 21 20 20 19 19 19 19 19 18 18 17 16 15 14 13 12 11 11 12 14 15 16 16 17 17 16 14 13 13 13 12 12 11 11 11 11 11 12 12 12 12
20 20 20 21 21 21 20 20 20 20 20 20 19 18 17 16 14 11 9 8 8 10 12 13 15 16 18 17 15 13 11 11 11 11 10 10 9 9 10 10 11 11 11
19 20 20 20 21 21 21 21 21 21 21 21 21 20 19 18 16 13 10 6 3 6 9 11 13 16 17 16 16 14 12 11 10 10 9 9 9 9 9 9 9 9 9
20 20 20 20 21 21 22 22 22 22 22 22 22 22 21 20 18 16 13 9 4 3 7 10 13 16 16 16 15 14 12 11 10 9 9 9 9 9 9 9 8 8 7
20 21 21 21 21 22 22 22 22 23 22 22 22 22 22 21 20 19 17 14 11 8 9 11 13 15 16 15 14 13 13 11 10 9 9 9 9 9 9 9 8 8 7
19 20 21 22 22 22 22 22 22 23 23 22 22 23 23 23 22 21 19 17 15 14 13 13 14 15 16 15 14 14 13 11 11 10 10 9 9 10 10 10 9 9 8
18 20 21 22 22 22 22 22 22 22 22 22 22 22 23 23 23 22 21 20 18 17 16 16 16 16 16 15 14 14 13 12 11 11 11 10 11 11 11 10 10 10 10
16 18 19 21 22 22 22 21 22 21 22 22 22 22 22 22 23 23 23 22 20 19 18 17 16 16 16 15 15 14 14 13 12 12 12 12 12 12 12 12 11 10 10
14 16 17 19 20 21 22 21 21 21 21 21 21 22 22 22 22 23 23 22 21 20 19 18 17 17 17 16 15 14 14 14 14 13 13 13 13 13 12 11 10 9 8
12 13 15 17 18 19 21 21 21 20 21 21 21 21 21 21 21 21 22 22 22 21 20 19 18 18 17 17 17 16 16 15 15 14 14 13 13 12 11 10 9 8 7
10 11 12 14 15 17 18 19 20 20 19 19 20 20 20 20 20 19 20 20 20 20 20 19 18 18 18 17 17 16 15 15 14 13 13 12 12 11 10 8 7 6 5
9 10 10 11 12 14 15 17 18 18 18 18 18 18 19 19 19 18 18 17 17 18 18 18 17 17 16 16 15 15 14 13 13 12 12 11 10 9 8 7 6 5 4
9 9 9 10 10 11 12 13 14 15 16 16 15 15 16 16 17 17 17 16 16 15 15 15 15 15 15 15 14 14 13 13 12 11 10 10 9 8 6 5 4 3 2
9 9 9 9 9 9 9 10 11 12 13 13 13 12 12 13 13 14 14 14 14 14 14 13 13 13 12 12 12 11 11 10 10 9 8 7 6 5 4 3 2 1 1
10 10 10 9 9 9 9 8 9 9 9 10 10 10 9 9 9 9 10 10 11 11 11 11 10 10 10 10 9 9 8 8 7 7 6 5 4 2 1 1 2 3 5
11 11 11 11 10 10 10 9 9 8 8 7 7 7 7 6 5 5 5 5 5 6 6 7 7 7 7 7 6 6 5 5 4 3 2 1 0 1 3 4 5 6 8
13 12 12 12 12 12 11 11 10 10 9 8 8 7 6 6 5 4 3 3 2 1 0 0 1 1 1 2 2 1 1 1 1 2 3 3 4 5 7 8 8 9 10
Wind_Direction
35 37 39 34 257 236 229 229 231 232 233 235 237 238 239 240 242 243 244 245 246 248 250 252 253 255 257 256 254 254 255 255 253 252 253 253 254 255 256 259 261 261 260
38 37 36 35 29 354 244 229 233 232 233 235 236 238 240 242 243 244 244 246 248 249 250 251 252 253 254 253 253 253 253 253 253 254 253 254 255 255 256 257 260 259 258
44 44 44 45 45 46 50 66 237 240 242 242 242 242 244 245 246 246 246 247 249 250 250 250 250 251 253 252 253 254 253 254 255 255 255 255 256 256 256 257 259 259 259
42 43 44 45 44 45 45 40 26 285 260 256 250 250 251 250 250 250 250 250 250 250 250 251 250 251 252 253 252 251 251 251 252 252 252 252 254 255 254 254 253 253 254
42 43 44 44 44 44 42 38 30 11 328 292 273 265 263 258 254 251 250 249 249 250 251 251 250 248 246 246 245 245 245 245 247 248 247 247 247 247 246 247 246 248 249
42 45 46 45 45 44 42 41 37 26 6 336 305 287 278 270 262 257 254 253 250 249 248 248 247 247 243 242 241 239 237 237 238 239 238 238 239 238 239 240 240 243 245
44 45 45 45 44 42 40 37 32 25 16 2 344 324 306 290 277 266 260 256 253 248 245 243 243 240 238 237 234 229 225 222 222 224 225 227 228 230 231 233 236 239 240
45 44 43 42 41 40 37 32 27 20 11 0 348 335 323 310 298 285 272 263 256 250 245 240 237 233 228 228 224 219 215 211 211 214 216 219 222 225 227 230 232 235 239
42 41 41 40 38 35 31 28 24 19 13 6 357 347 337 324 311 298 286 271 258 249 242 237 234 229 222 219 214 209 205 202 201 205 208 210 214 218 221 225 228 232 238
40 39 38 36 34 32 29 26 22 18 14 8 3 357 350 341 329 315 300 279 259 246 237 230 224 219 213 207 205 203 200 198 199 203 203 203 209 214 217 221 225 229 235
37 36 35 33 32 30 27 24 21 18 15 12 9 7 4 359 350 337 321 296 263 239 229 222 214 208 202 199 197 193 190 190 193 199 204 204 205 209 211 215 220 224 230
34 32 31 31 30 28 26 24 21 19 18 17 17 16 16 14 11 7 359 344 281 219 210 206 200 197 195 192 189 185 182 182 185 191 196 201 203 204 203 204 207 214 219
32 30 29 28 27 27 26 24 23 22 22 23 23 24 24 24 25 27 30 37 58 140 172 179 182 183 183 182 179 178 177 179 184 188 190 191 193 196 197 196 194 198 200
30 29 29 27 27 27 26 26 25 25 26 27 28 29 30 31 33 37 42 52 66 91 125 146 159 168 171 170 170 169 171 174 177 179 180 182 184 184 182 177 177 177 175
27 28 28 27 27 27 28 28 28 28 29 30 32 33 35 37 40 43 48 57 70 86 105 123 137 147 154 158 160 162 166 168 167 167 167 169 169 169 168 166 163 159 155
25 26 26 26 26 27 28 30 31 31 32 33 35 37 39 42 46 50 54 62 72 85 99 110 121 131 140 146 150 153 154 154 155 158 160 161 159 157 156 154 151 149 146
22 23 24 25 26 27 29 30 32 34 35 36 38 41 43 46 49 54 59 65 73 83 93 103 111 119 128 134 138 142 145 146 147 148 150 150 150 148 146 144 143 143 142
18 19 21 23 25 27 29 30 32 35 36 38 41 43 46 49 53 57 61 66 73 81 88 95 103 111 117 123 129 132 135 136 138 139 140 142 143 142 141 139 138 137 137
10 14 17 20 23 25 27 29 32 35 38 40 43 45 48 52 56 59 64 68 73 79 86 92 98 105 111 115 120 123 126 129 130 131 133 135 137 137 136 135 134 134 133
355 1 7 13 18 22 24 27 30 33 36 40 43 46 49 53 57 62 66 70 75 80 85 90 96 102 107 111 115 119 122 126 128 129 130 132 133 133 133 132 132 132 131
339 346 353 1 8 15 20 23 26 30 34 38 42 46 49 53 57 62 67 71 75 80 84 89 94 100 105 109 112 116 119 122 124 125 126 128 130 131 133 134 135 136 137
331 335 342 349 357 4 11 18 22 25 29 34 39 44 48 52 56 61 66 70 74 79 84 89 94 98 102 105 108 112 115 117 119 121 123 126 128 131 134 138 143 148 156
323 326 331 337 343 350 357 5 12 18 22 27 32 38 44 50 55 59 64 69 73 77 82 87 92 97 100 104 107 110 113 115 118 120 122 124 126 129 134 142 155 190 260
310 314 317 320 326 332 336 342 351 360 8 15 21 26 33 41 49 56 62 67 72 77 81 86 90 95 99 103 107 110 112 115 118 119 120 122 125 128 142 241 277 287 294
301 304 307 309 311 313 316 320 324 329 337 346 355 2 8 13 21 33 49 61 69 75 81 86 91 95 100 105 109 112 113 115 117 120 122 119 22 310 306 302 299 298 300
290 294 298 300 301 303 304 304 305 305 307 310 315 321 326 329 328 325 318 312 302 292 291 107 113 118 120 128 142 154 174 209 247 269 282 290 295 298 299 298 298 299 300
Height
5771 5769 5767 5766 5766 5766 5767 5768 5771 5773 5776 5778 5781 5783 5786 5788 5790 5792 5795 5797 5799 5801 5803 5805 5806 5808 5809 5810 5811 5813 5814 5815 5817 5819 5821 5823 5825 5826 5828 5829 5831 5832 5833
5775 5772 5770 5768 5767 5767 5767 5767 5768 5770 5772 5774 5776 5778 5780 5781 5783 5785 5786 5788 5790 5792 5794 5795 5797 5798 5800 5801 5802 5804 5805 5806 5809 5811 5812 5814 5816 5818 5819 5821 5822 5824 5825
5779 5776 5773 5771 5770 5769 5768 5767 5768 5768 5769 5770 5771 5773 5774 5775 5776 5777 5779 5780 5781 5783 5784 5786 5787 5789 5790 5792 5794 5795 5797 5799 5801 5803 5804 5806 5808 5809 5811 5813 5815 5817 5818
5783 5780 5777 5775 5773 5771 5770 5769 5768 5768 5768 5768 5769 5769 5769 5770 5770 5771 5771 5772 5773 5774 5775 5777 5778 5779 5781 5782 5784 5786 5788 5791 5793 5795 5797 5799 5800 5802 5804 5806 5808 5810 5812
5787 5784 5781 5778 5775 5773 5772 5770 5769 5768 5768 5767 5766 5766 5765 5765 5764 5764 5765 5765 5766 5766 5767 5768 5770 5771 5772 5774 5776 5778 5780 5783 5785 5787 5790 5792 5794 5796 5798 5800 5803 5805 5806
5791 5787 5784 5781 5779 5776 5774 5772 5770 5769 5767 5766 5764 5763 5762 5760 5759 5759 5759 5759 5759 5759 5760 5761 5762 5764 5765 5767 5769 5771 5773 5776 5778 5781 5783 5785 5788 5790 5793 5795 5798 5800 5802
5795 5791 5788 5785 5782 5779 5776 5774 5772 5769 5767 5765 5762 5760 5758 5756 5754 5753 5753 5752 5752 5753 5753 5754 5756 5757 5759 5761 5762 5764 5767 5769 5772 5775 5777 5780 5783 5785 5788 5791 5793 5796 5797
5799 5796 5792 5789 5785 5782 5779 5776 5773 5770 5767 5763 5760 5757 5754 5752 5749 5747 5746 5745 5745 5746 5747 5748 5749 5751 5753 5756 5758 5760 5762 5764 5767 5771 5773 5776 5779 5781 5784 5787 5789 5792 5794
5803 5799 5796 5792 5789 5785 5781 5778 5774 5770 5766 5762 5758 5754 5750 5747 5744 5742 5740 5738 5738 5739 5740 5742 5744 5746 5749 5752 5754 5756 5759 5761 5764 5768 5770 5773 5776 5778 5781 5784 5786 5789 5790
5806 5803 5799 5795 5791 5787 5783 5779 5775 5771 5766 5762 5757 5752 5748 5744 5740 5737 5734 5732 5732 5733 5734 5736 5739 5742 5745 5748 5751 5753 5756 5759 5762 5765 5768 5771 5773 5776 5779 5781 5783 5785 5787
5810 5806 5802 5798 5794 5790 5785 5781 5776 5772 5767 5762 5756 5751 5746 5741 5737 5733 5730 5728 5727 5728 5729 5732 5734 5738 5741 5745 5749 5752 5755 5758 5761 5764 5767 5769 5772 5774 5776 5778 5780 5783 5784
5813 5809 5805 5801 5797 5792 5788 5783 5778 5773 5768 5763 5757 5752 5746 5741 5736 5732 5728 5725 5724 5724 5726 5729 5731 5735 5739 5743 5747 5751 5754 5758 5761 5763 5765 5768 5770 5772 5774 5776 5778 5780 5782
5816 5812 5808 5804 5799 5795 5790 5786 5781 5776 5770 5765 5759 5754 5748 5743 5738 5733 5729 5726 5724 5724 5725 5727 5731 5734 5739 5743 5747 5751 5754 5757 5760 5762 5765 5767 5769 5771 5773 5775 5777 5779 5780
5819 5815 5811 5806 5802 5797 5793 5788 5783 5778 5773 5768 5763 5758 5752 5747 5742 5737 5733 5729 5727 5726 5727 5729 5732 5735 5740 5744 5748 5751 5755 5758 5760 5762 5765 5767 5769 5771 5773 5775 5777 5778 5780
5821 5817 5813 5809 5805 5800 5796 5791 5786 5782 5777 5772 5767 5762 5757 5752 5747 5742 5738 5734 5732 5730 5731 5733 5735 5738 5742 5746 5749 5753 5756 5759 5761 5763 5765 5767 5769 5771 5773 5775 5777 5779 5781
5824 5820 5816 5812 5808 5803 5799 5795 5790 5785 5781 5776 5771 5767 5762 5757 5753 5748 5744 5741 5738 5737 5737 5738 5740 5743 5746 5749 5752 5755 5758 5760 5762 5764 5766 5768 5771 5772 5774 5776 5778 5780 5782
5826 5823 5819 5815 5811 5807 5802 5798 5794 5790 5785 5781 5776 5772 5768 5764 5760 5756 5752 5749 5746 5745 5745 5745 5746 5748 5750 5753 5755 5758 5760 5762 5764 5766 5768 5771 5773 5774 5776 5778 5780 5781 5783
5828 5825 5821 5818 5814 5810 5806 5802 5798 5793 5789 5785 5781 5777 5774 5770 5766 5763 5759 5757 5755 5753 5752 5752 5753 5754 5756 5757 5759 5761 5764 5766 5767 5769 5771 5773 5775 5777 5779 5780 5782 5783 5784
5829 5826 5823 5820 5817 5813 5809 5805 5802 5798 5794 5790 5786 5783 5779 5776 5773 5770 5767 5765 5763 5761 5760 5760 5760 5761 5762 5763 5764 5766 5768 5770 5771 5773 5775 5776 5778 5779 5781 5782 5784 5785 5786
5829 5827 5824 5821 5819 5816 5812 5809 5805 5802 5798 5795 5791 5788 5785 5782 5779 5777 5774 5772 5771 5769 5768 5767 5767 5767 5768 5769 5770 5771 5772 5774 5775 5777 5778 5779 5781 5782 5783 5784 5785 5786 5786
5828 5826 5824 5822 5820 5817 5814 5811 5808 5805 5802 5799 5796 5793 5790 5787 5785 5783 5781 5779 5778 5776 5775 5774 5774 5774 5774 5774 5775 5776 5777 5778 5779 5780 5781 5782 5783 5784 5785 5785 5786 5786 5786
5827 5825 5823 5822 5820 5818 5815 5813 5811 5808 5805 5803 5800 5797 5795 5793 5791 5788 5787 5785 5784 5782 5781 5781 5780 5780 5780 5780 5780 5781 5781 5782 5782 5783 5784 5784 5785 5785 5786 5786 5786 5786 5786
5825 5824 5822 5820 5819 5817 5815 5814 5812 5810 5807 5805 5803 5801 5799 5797 5795 5793 5792 5790 5789 5788 5787 5786 5785 5785 5784 5784 5784 5784 5785 5785 5785 5785 5786 5786 5786 5786 5786 5786 5786 5786 5785
5822 5821 5820 5819 5817 5816 5814 5813 5811 5810 5808 5806 5805 5803 5801 5800 5798 5797 5796 5794 5793 5792 5791 5790 5789 5789 5788 5788 5788 5787 5787 5787 5787 5787 5787 5787 5787 5787 5786 5786 5785 5784 5783
5819 5818 5817 5816 5815 5814 5812 5811 5810 5809 5808 5806 5805 5804 5802 5801 5800 5799 5798 5797 5796 5795 5794 5793 5792 5792 5791 5790 5790 5789 5789 5789 5789 5788 5788 5787 5787 5786 5785 5784 5783 5782 5781
5815 5814 5813 5812 5811 5810 5809 5808 5807 5806 5805 5804 5803 5802 5801 5800 5799 5799 5798 5797 5796 5795 5795 5794 5793 5792 5792 5791 5791 5790 5790 5789 5789 5788 5787 5786 5786 5785 5784 5782 5781 5780 5778